Weather History for Sioux Falls, SD

Change the Weather History Date:

Sunday, October 7, 2012

  Actual Average Record
Temperature  
Mean Temperature 40 °F 52 °F  
Max Temperature 58 °F 64 °F 88 °F (1980)
Min Temperature 22 °F 39 °F 17 °F (1974)
Degree Days  
Heating Degree Days 25 14  
Month to date heating degree days 124 87  
Since 1 July heating degree days 287 291  
Cooling Degree Days 0 0  
Month to date cooling degree days 0 0  
Year to date cooling degree days 1182 685  
Moisture  
Dew Point 19 °F    
Average Humidity 50    
Maximum Humidity 81    
Minimum Humidity 19    
Precipitation  
Precipitation 0.00 in 0.08 in 1.50 in (2007)
Month to date precipitation T 0.61  
Year to date precipitation 14.82 22.77  
Snow  
Snow 0.00 in 0.00 in T in (1970)
Month to date snowfall 0.0 0.1  
Since 1 July snowfall 0.0 0.1  
Since 1 September snowfall 0.0 0.1  
Snow Depth 0.00 in    
Sea Level Pressure  
Sea Level Pressure 30.10 in    
Wind  
Wind Speed 5 mph (SW)    
Max Wind Speed 16 mph    
Max Gust Speed 29 mph    
Visibility 10 miles    
Events      
T = Trace of Precipitation, MM = Missing Value Source: NWS Daily Summary

Daily Weather History Graph

Daily Weather History Graph

Search for Another Location

Airport:

Trip Planner

Search our weather history database for the weather conditions in past years. The results will help you decide how hot, cold, wet, or windy it might be!

Date:

Astronomy

Oct. 07, 2012 Rise Set
Actual Time 7:32 AM CDT 6:56 PM CDT
Civil Twilight 7:03 AM CDT 7:25 PM CDT
Nautical Twilight 6:30 AM CDT 7:58 PM CDT
Astronomical Twilight 5:56 AM CDT 8:31 PM CDT
Moon No Moon Rise 2:17 PM CDT (10/7)
Length of Visible Light 12h 21m
Length of Day
11h 24m
Waning Gibbous, 56% of the Moon is Illuminated
Oct 7
Waning Gibbous
Oct 8
Last Quarter
Oct 15
New
Oct 21
First Quarter
Oct 29
Full

Hourly Weather History & Observations

Time (CDT) Temp. Windchill Dew Point Humidity Pressure Visibility Wind Dir Wind Speed Gust Speed Precip Events Conditions
12:56 AM 24.1 °F - 18.0 °F 77% 30.31 in 10.0 mi Calm Calm - N/A   Clear
1:56 AM 24.1 °F - 19.9 °F 84% 30.30 in 10.0 mi Calm Calm - N/A   Clear
2:56 AM 23.0 °F - 18.0 °F 81% 30.29 in 10.0 mi Calm Calm - N/A   Clear
3:56 AM 27.0 °F 23.0 °F 19.0 °F 72% 30.26 in 10.0 mi SSW 3.5 mph - N/A   Clear
4:56 AM 28.9 °F 25.2 °F 19.0 °F 67% 30.24 in 10.0 mi SW 3.5 mph - N/A   Clear
5:56 AM 28.0 °F 24.2 °F 18.0 °F 66% 30.23 in 10.0 mi SW 3.5 mph - N/A   Clear
6:56 AM 28.0 °F 24.2 °F 18.0 °F 66% 30.23 in 10.0 mi SW 3.5 mph - N/A   Clear
7:56 AM 26.1 °F 20.5 °F 18.0 °F 71% 30.22 in 10.0 mi SSW 4.6 mph - N/A   Clear
8:56 AM 32.0 °F 26.4 °F 21.9 °F 66% 30.20 in 10.0 mi SSW 5.8 mph - N/A   Clear
9:56 AM 37.0 °F 31.6 °F 24.1 °F 59% 30.19 in 10.0 mi SW 6.9 mph - N/A   Clear
10:56 AM 42.1 °F 37.1 °F 24.1 °F 49% 30.17 in 10.0 mi SW 8.1 mph - N/A   Clear
11:56 AM 48.9 °F - 24.1 °F 38% 30.13 in 10.0 mi Variable 5.8 mph - N/A   Clear
12:56 PM 52.0 °F - 19.9 °F 28% 30.09 in 10.0 mi WSW 8.1 mph 21.9 mph N/A   Clear
1:56 PM 54.0 °F - 19.9 °F 26% 30.06 in 10.0 mi WSW 11.5 mph 19.6 mph N/A   Clear
2:56 PM 55.0 °F - 21.0 °F 27% 30.02 in 10.0 mi SW 11.5 mph 21.9 mph N/A   Clear
3:56 PM 57.0 °F - 19.0 °F 23% 29.99 in 10.0 mi WSW 6.9 mph 17.3 mph N/A   Clear
4:56 PM 57.9 °F - 18.0 °F 21% 29.95 in 10.0 mi West 9.2 mph - N/A   Clear
5:56 PM 57.0 °F - 16.0 °F 20% 29.94 in 10.0 mi WSW 6.9 mph - N/A   Clear
6:56 PM 53.1 °F - 17.1 °F 24% 29.93 in 10.0 mi West 4.6 mph - N/A   Partly Cloudy
7:56 PM 46.0 °F - 19.0 °F 34% 29.94 in 10.0 mi Calm Calm - N/A   Scattered Clouds
8:56 PM 39.0 °F - 19.9 °F 46% 29.94 in 10.0 mi Calm Calm - N/A   Clear
9:56 PM 39.0 °F - 21.0 °F 49% 29.93 in 10.0 mi Calm Calm - N/A   Mostly Cloudy
10:56 PM 45.0 °F 41.2 °F 16.0 °F 31% 29.91 in 10.0 mi SSW 6.9 mph - N/A   Partly Cloudy
11:56 PM 43.0 °F 39.5 °F 18.0 °F 37% 29.89 in 10.0 mi SSW 5.8 mph - N/A   Partly Cloudy